| time (UTC) | temp F | wind direction | speed MPH | gust MPH | rain 1hr in | rain 24hr in | rain mn in | humidity % | barometer mb |
| 20260506072704 | 55 | 295 | 0.0 | 0.0 | 0.00 | 0.00 | 0.00 | 84 | 1020.1 |
| 20260506071704 | 55 | 295 | 0.0 | 0.0 | 0.00 | 0.00 | 0.00 | 84 | 1020.0 |
| 20260506071506 | 55 | 295 | 0.0 | 0.0 | 0.00 | 0.00 | 0.00 | 84 | 1017.5 |
| 20260506071204 | 55 | 295 | 0.0 | 0.0 | 0.00 | 0.00 | 0.00 | 84 | 1019.9 |
| 20260506070704 | 55 | 295 | 0.0 | 0.0 | 0.00 | 0.00 | 0.00 | 83 | 1019.8 |
| 20260506070117 | 55 | 295 | 0.0 | 0.0 | 0.00 | 0.00 | 0.00 | 83 | 1017.2 |
| 20260506062204 | 56 | 295 | 0.0 | 0.0 | 0.00 | 0.00 | 0.00 | 81 | 1019.2 |
| 20260506061704 | 56 | 295 | 0.0 | 0.0 | 0.00 | 0.00 | 0.00 | 81 | 1019.2 |
| 20260506061559 | 56 | 295 | 0.0 | 0.0 | 0.00 | 0.00 | 0.00 | 81 | 1016.8 |
| 20260506061205 | 56 | 295 | 0.0 | 0.0 | 0.00 | 0.00 | 0.00 | 81 | 1019.2 |
| 20260506060705 | 56 | 295 | 0.0 | 0.0 | 0.00 | 0.00 | 0.00 | 82 | 1019.2 |
| 20260506060204 | 56 | 295 | 0.0 | 0.0 | 0.00 | 0.00 | 0.00 | 82 | 1019.2 |
| 20260506051205 | 57 | 295 | 0.0 | 0.0 | 0.00 | 0.00 | 0.00 | 79 | 1019.1 |
| 20260506050705 | 57 | 295 | 0.0 | 0.0 | 0.00 | 0.00 | 0.00 | 79 | 1019.1 |
| 20260506050205 | 57 | 295 | 0.0 | 0.0 | 0.00 | 0.00 | 0.00 | 79 | 1019.1 |
| 20260506044704 | 57 | 295 | 0.0 | 0.0 | 0.00 | 0.00 | 0.00 | 78 | 1018.9 |
| 20260506044557 | 57 | 295 | 0.0 | 0.0 | 0.00 | 0.00 | 0.00 | 78 | 1016.4 |
| 20260506044205 | 57 | 295 | 0.0 | 0.0 | 0.00 | 0.00 | 0.00 | 78 | 1018.9 |
| 20260506043704 | 57 | 295 | 0.0 | 0.0 | 0.00 | 0.00 | 0.00 | 78 | 1018.7 |
| 20260506043204 | 58 | 295 | 0.0 | 0.0 | 0.00 | 0.00 | 0.00 | 78 | 1018.7 |
| 20260506043049 | 57 | 295 | 0.0 | 0.0 | 0.00 | 0.00 | 0.00 | 77 | 1016.3 |
| 20260506042704 | 58 | 295 | 0.0 | 0.0 | 0.00 | 0.00 | 0.00 | 77 | 1018.7 |
| 20260506042204 | 58 | 295 | 0.0 | 0.0 | 0.00 | 0.00 | 0.00 | 77 | 1018.4 |
| 20260506041704 | 58 | 295 | 0.0 | 0.0 | 0.00 | 0.00 | 0.00 | 76 | 1018.5 |
| 20260506041551 | 58 | 295 | 0.0 | 0.0 | 0.00 | 0.00 | 0.00 | 76 | 1016.1 |
| 20260506040705 | 59 | 295 | 0.0 | 0.0 | 0.00 | 0.00 | 0.00 | 75 | 1018.3 |
| 20260506040204 | 59 | 295 | 0.0 | 0.0 | 0.00 | 0.00 | 0.00 | 75 | 1018.2 |
| 20260506040045 | 58 | 295 | 0.0 | 0.0 | 0.00 | 0.00 | 0.00 | 75 | 1015.8 |
| 20260506035704 | 59 | 295 | 0.0 | 7.0 | 0.00 | 0.00 | 0.00 | 75 | 1018.3 |
| 20260506035204 | 59 | 295 | 0.0 | 7.0 | 0.00 | 0.00 | 0.00 | 74 | 1018.3 |
| 20260506034704 | 59 | 295 | 0.0 | 9.0 | 0.00 | 0.00 | 0.00 | 74 | 1018.2 |
| 20260506034542 | 59 | 295 | 2.0 | 8.0 | 0.00 | 0.00 | 0.00 | 74 | 1015.7 |
| 20260506034205 | 59 | 295 | 6.0 | 9.0 | 0.00 | 0.00 | 0.00 | 74 | 1018.1 |
| 20260506033705 | 60 | 295 | 6.0 | 10.0 | 0.00 | 0.00 | 0.00 | 73 | 1018.0 |
| 20260506033040 | 59 | 295 | 6.0 | 10.0 | 0.00 | 0.00 | 0.00 | 73 | 1015.4 |
| 20260506032705 | 60 | 295 | 7.0 | 13.0 | 0.00 | 0.00 | 0.00 | 72 | 1017.7 |
| 20260506031554 | 60 | 295 | 9.0 | 13.0 | 0.00 | 0.00 | 0.00 | 71 | 1015.1 |
| 20260506031204 | 61 | 295 | 9.0 | 12.0 | 0.00 | 0.00 | 0.00 | 71 | 1017.5 |
| 20260506030205 | 61 | 295 | 10.0 | 13.0 | 0.00 | 0.00 | 0.00 | 69 | 1017.4 |
| 20260506030055 | 61 | 295 | 9.0 | 13.0 | 0.00 | 0.00 | 0.00 | 69 | 1014.9 |
| 20260506025704 | 62 | 295 | 9.0 | 13.0 | 0.00 | 0.00 | 0.00 | 69 | 1017.3 |
| 20260506025204 | 62 | 288 | 11.0 | 12.0 | 0.00 | 0.00 | 0.00 | 69 | 1017.3 |
| 20260506024705 | 62 | 278 | 8.0 | 13.0 | 0.00 | 0.00 | 0.00 | 68 | 1017.2 |
| 20260506024539 | 61 | 281 | 8.0 | 12.0 | 0.00 | 0.00 | 0.00 | 68 | 1014.8 |
| 20260506024205 | 62 | 295 | 9.0 | 13.0 | 0.00 | 0.00 | 0.00 | 68 | 1017.1 |
| 20260506023704 | 62 | 295 | 10.0 | 13.0 | 0.00 | 0.00 | 0.00 | 67 | 1017.2 |
| 20260506023039 | 62 | 281 | 9.0 | 13.0 | 0.00 | 0.00 | 0.00 | 66 | 1014.7 |
| 20260506021704 | 63 | 273 | 9.0 | 16.0 | 0.00 | 0.00 | 0.00 | 64 | 1017.0 |
| 20260506021537 | 63 | 274 | 12.0 | 16.0 | 0.00 | 0.00 | 0.00 | 64 | 1014.5 |
| 20260506020704 | 64 | 285 | 11.0 | 17.0 | 0.00 | 0.00 | 0.00 | 63 | 1016.9 |
| 20260506020036 | 65 | 284 | 11.0 | 15.0 | 0.00 | 0.00 | 0.00 | 62 | 1014.6 |
| 20260506015204 | 66 | 283 | 12.0 | 16.0 | 0.00 | 0.00 | 0.00 | 61 | 1017.1 |
| 20260506014704 | 66 | 262 | 11.0 | 15.0 | 0.00 | 0.00 | 0.00 | 60 | 1017.1 |
| 20260506014536 | 66 | 274 | 13.0 | 16.0 | 0.00 | 0.00 | 0.00 | 59 | 1014.6 |
| 20260506014204 | 66 | 271 | 10.0 | 15.0 | 0.00 | 0.00 | 0.00 | 60 | 1016.9 |
| 20260506013704 | 66 | 280 | 13.0 | 13.0 | 0.00 | 0.00 | 0.00 | 60 | 1016.8 |
| 20260506013205 | 66 | 295 | 9.0 | 11.0 | 0.00 | 0.00 | 0.00 | 60 | 1016.9 |
| 20260506013041 | 65 | 295 | 7.0 | 11.0 | 0.00 | 0.00 | 0.00 | 61 | 1014.6 |
| 20260506012704 | 66 | 295 | 6.0 | 11.0 | 0.00 | 0.00 | 0.00 | 61 | 1016.9 |
| 20260506012204 | 65 | 298 | 6.0 | 11.0 | 0.00 | 0.00 | 0.00 | 61 | 1016.9 |
| 20260506011705 | 65 | 289 | 9.0 | 12.0 | 0.00 | 0.00 | 0.00 | 61 | 1017.0 |
| 20260506011534 | 65 | 267 | 8.0 | 10.0 | 0.00 | 0.00 | 0.00 | 61 | 1014.5 |
| 20260506011204 | 66 | 266 | 6.0 | 12.0 | 0.00 | 0.00 | 0.00 | 60 | 1017.1 |
| 20260506010704 | 66 | 266 | 6.0 | 12.0 | 0.00 | 0.00 | 0.00 | 61 | 1017.0 |
| 20260506010205 | 66 | 295 | 8.0 | 12.0 | 0.00 | 0.00 | 0.00 | 60 | 1017.1 |
| 20260506010035 | 65 | 247 | 7.0 | 12.0 | 0.00 | 0.00 | 0.00 | 60 | 1014.6 |
| 20260506005704 | 66 | 271 | 8.0 | 12.0 | 0.00 | 0.00 | 0.00 | 60 | 1017.0 |
| 20260506005204 | 66 | 249 | 5.0 | 11.0 | 0.00 | 0.00 | 0.00 | 60 | 1017.0 |
| 20260506004704 | 66 | 282 | 6.0 | 13.0 | 0.00 | 0.00 | 0.00 | 59 | 1017.0 |
| 20260506004603 | 66 | 240 | 7.0 | 11.0 | 0.00 | 0.00 | 0.00 | 59 | 1014.5 |
| 20260506004204 | 67 | 282 | 6.0 | 14.0 | 0.00 | 0.00 | 0.00 | 59 | 1017.0 |
| 20260506003704 | 67 | 278 | 7.0 | 14.0 | 0.00 | 0.00 | 0.00 | 59 | 1017.0 |
| 20260506003205 | 66 | 266 | 7.0 | 13.0 | 0.00 | 0.00 | 0.00 | 59 | 1017.0 |
| 20260506003033 | 66 | 280 | 10.0 | 14.0 | 0.00 | 0.00 | 0.00 | 59 | 1014.6 |
| 20260506002704 | 66 | 301 | 9.0 | 12.0 | 0.00 | 0.00 | 0.00 | 59 | 1016.9 |
| 20260506002204 | 66 | 269 | 9.0 | 12.0 | 0.00 | 0.00 | 0.00 | 59 | 1016.9 |
| 20260506001532 | 65 | 290 | 8.0 | 12.0 | 0.00 | 0.00 | 0.00 | 60 | 1014.5 |
| 20260506001205 | 66 | 302 | 6.0 | 12.0 | 0.00 | 0.00 | 0.00 | 60 | 1017.0 |
| 20260506000705 | 66 | 296 | 7.0 | 13.0 | 0.00 | 0.00 | 0.00 | 60 | 1016.9 |
| 20260506000033 | 66 | 295 | 7.0 | 13.0 | 0.00 | 0.00 | 0.00 | 59 | 1014.4 |
| 20260505235704 | 66 | 290 | 9.0 | 13.0 | 0.00 | 0.00 | 0.00 | 59 | 1016.8 |
| 20260505235204 | 66 | 295 | 5.0 | 12.0 | 0.00 | 0.00 | 0.00 | 59 | 1016.8 |
| 20260505234704 | 66 | 316 | 8.0 | 15.0 | 0.00 | 0.00 | 0.00 | 59 | 1016.7 |
| 20260505234602 | 66 | 283 | 7.0 | 11.0 | 0.00 | 0.00 | 0.00 | 59 | 1014.3 |
| 20260505234205 | 66 | 295 | 8.0 | 15.0 | 0.00 | 0.00 | 0.00 | 59 | 1016.8 |
| 20260505233705 | 67 | 326 | 9.0 | 15.0 | 0.00 | 0.00 | 0.00 | 58 | 1016.8 |
| 20260505233032 | 66 | 295 | 10.0 | 14.0 | 0.00 | 0.00 | 0.00 | 58 | 1014.3 |
| 20260505232704 | 67 | 311 | 9.0 | 12.0 | 0.00 | 0.00 | 0.00 | 58 | 1016.7 |
| 20260505232204 | 67 | 346 | 7.0 | 12.0 | 0.00 | 0.00 | 0.00 | 57 | 1016.8 |
| 20260505231704 | 68 | 326 | 8.0 | 11.0 | 0.00 | 0.00 | 0.00 | 55 | 1016.9 |
| 20260505231531 | 67 | 337 | 5.0 | 10.0 | 0.00 | 0.00 | 0.00 | 56 | 1014.4 |
| 20260505231204 | 67 | 295 | 5.0 | 11.0 | 0.00 | 0.00 | 0.00 | 56 | 1016.7 |
| 20260505230705 | 67 | 6 | 6.0 | 12.0 | 0.00 | 0.00 | 0.00 | 56 | 1016.8 |
| 20260505230028 | 67 | 348 | 6.0 | 11.0 | 0.00 | 0.00 | 0.00 | 56 | 1014.4 |
| 20260505225704 | 68 | 334 | 1.0 | 12.0 | 0.00 | 0.00 | 0.00 | 55 | 1016.8 |
| 20260505225204 | 68 | 276 | 9.0 | 14.0 | 0.00 | 0.00 | 0.00 | 56 | 1016.8 |
| 20260505224704 | 68 | 279 | 6.0 | 14.0 | 0.00 | 0.00 | 0.00 | 56 | 1016.9 |
| 20260505224532 | 67 | 295 | 6.0 | 14.0 | 0.00 | 0.00 | 0.00 | 57 | 1014.4 |
| 20260505223704 | 67 | 271 | 6.0 | 14.0 | 0.00 | 0.00 | 0.00 | 57 | 1016.9 |
| 20260505223204 | 68 | 306 | 8.0 | 17.0 | 0.00 | 0.00 | 0.00 | 56 | 1016.9 |
| 20260505223027 | 67 | 280 | 9.0 | 13.0 | 0.00 | 0.00 | 0.00 | 57 | 1014.5 |
| 20260505222205 | 67 | 295 | 11.0 | 17.0 | 0.00 | 0.00 | 0.00 | 57 | 1017.0 |
| 20260505221704 | 67 | 302 | 13.0 | 18.0 | 0.00 | 0.00 | 0.00 | 57 | 1017.0 |
| 20260505221528 | 67 | 300 | 7.0 | 15.0 | 0.00 | 0.00 | 0.00 | 56 | 1014.6 |
| 20260505220704 | 67 | 269 | 11.0 | 18.0 | 0.00 | 0.00 | 0.00 | 56 | 1017.0 |
| 20260505220206 | 67 | 278 | 9.0 | 11.0 | 0.00 | 0.00 | 0.00 | 57 | 1017.0 |
| 20260505220026 | 66 | 295 | 10.0 | 13.0 | 0.00 | 0.00 | 0.00 | 57 | 1014.6 |
| 20260505215704 | 66 | 295 | 8.0 | 11.0 | 0.00 | 0.00 | 0.00 | 57 | 1017.1 |
| 20260505215204 | 66 | 305 | 7.0 | 11.0 | 0.00 | 0.00 | 0.00 | 56 | 1017.1 |
| 20260505214705 | 66 | 279 | 9.0 | 9.0 | 0.00 | 0.00 | 0.00 | 57 | 1017.1 |
| 20260505214525 | 66 | 304 | 7.0 | 10.0 | 0.00 | 0.00 | 0.00 | 57 | 1014.7 |
| 20260505214205 | 66 | 295 | 4.0 | 12.0 | 0.00 | 0.00 | 0.00 | 57 | 1017.1 |
| 20260505213204 | 68 | 301 | 5.0 | 12.0 | 0.00 | 0.00 | 0.00 | 54 | 1017.2 |
| 20260505213024 | 67 | 264 | 4.0 | 12.0 | 0.00 | 0.00 | 0.00 | 53 | 1014.8 |
| 20260505212704 | 68 | 242 | 10.0 | 12.0 | 0.00 | 0.00 | 0.00 | 54 | 1017.2 |
| 20260505211704 | 67 | 255 | 7.0 | 7.0 | 0.00 | 0.00 | 0.00 | 55 | 1017.3 |
| 20260505211521 | 67 | 266 | 7.0 | 12.0 | 0.00 | 0.00 | 0.00 | 55 | 1014.8 |
| 20260505211205 | 67 | 264 | 3.0 | 6.0 | 0.00 | 0.00 | 0.00 | 56 | 1017.3 |
| 20260505210704 | 66 | 295 | 4.0 | 9.0 | 0.00 | 0.00 | 0.00 | 58 | 1017.2 |
| 20260505210204 | 65 | 311 | 0.0 | 9.0 | 0.00 | 0.00 | 0.00 | 57 | 1017.2 |
| 20260505210022 | 65 | 318 | 0.0 | 8.0 | 0.00 | 0.00 | 0.00 | 56 | 1014.9 |
| 20260505205705 | 66 | 311 | 2.0 | 9.0 | 0.00 | 0.00 | 0.00 | 56 | 1017.4 |
| 20260505204705 | 66 | 165 | 3.0 | 5.0 | 0.00 | 0.00 | 0.00 | 57 | 1017.5 |
| 20260505204525 | 65 | 160 | 2.0 | 6.0 | 0.00 | 0.00 | 0.00 | 58 | 1015.0 |
| 20260505204205 | 65 | 145 | 2.0 | 9.0 | 0.00 | 0.00 | 0.00 | 57 | 1017.5 |
| 20260505203704 | 64 | 127 | 1.0 | 10.0 | 0.00 | 0.00 | 0.00 | 58 | 1017.6 |
| 20260505203204 | 66 | 190 | 2.0 | 10.0 | 0.00 | 0.00 | 0.00 | 54 | 1017.5 |
| 20260505203020 | 66 | 233 | 4.0 | 10.0 | 0.00 | 0.00 | 0.00 | 55 | 1015.1 |
| 20260505202704 | 66 | 231 | 4.0 | 10.0 | 0.00 | 0.00 | 0.00 | 55 | 1017.5 |
| 20260505202204 | 66 | 271 | 6.0 | 10.0 | 0.00 | 0.00 | 0.00 | 58 | 1017.5 |
| 20260505201705 | 65 | 238 | 7.0 | 10.0 | 0.00 | 0.00 | 0.00 | 59 | 1017.5 |
| 20260505201519 | 64 | 238 | 2.0 | 10.0 | 0.00 | 0.00 | 0.00 | 59 | 1015.1 |
| 20260505201205 | 65 | 296 | 4.0 | 10.0 | 0.00 | 0.00 | 0.00 | 58 | 1017.5 |
| 20260505200705 | 65 | 283 | 7.0 | 9.0 | 0.00 | 0.00 | 0.00 | 60 | 1017.5 |
| 20260505200204 | 65 | 299 | 4.0 | 12.0 | 0.00 | 0.00 | 0.00 | 60 | 1017.6 |
| 20260505200022 | 64 | 282 | 5.0 | 9.0 | 0.00 | 0.00 | 0.00 | 60 | 1015.2 |
| 20260505195205 | 63 | 295 | 5.0 | 12.0 | 0.00 | 0.00 | 0.00 | 62 | 1017.8 |
| 20260505194705 | 63 | 261 | 1.0 | 9.0 | 0.00 | 0.00 | 0.00 | 63 | 1017.8 |
| 20260505194614 | 62 | 266 | 0.0 | 8.0 | 0.00 | 0.00 | 0.00 | 62 | 1015.4 |
| 20260505194204 | 64 | 272 | 3.0 | 9.0 | 0.00 | 0.00 | 0.00 | 60 | 1017.8 |
| 20260505193704 | 64 | 241 | 5.0 | 11.0 | 0.00 | 0.00 | 0.00 | 61 | 1017.9 |
| 20260505193204 | 63 | 235 | 4.0 | 11.0 | 0.00 | 0.00 | 0.00 | 62 | 1017.9 |
| 20260505193012 | 63 | 265 | 4.0 | 11.0 | 0.00 | 0.00 | 0.00 | 61 | 1015.4 |
| 20260505192704 | 64 | 279 | 6.0 | 11.0 | 0.00 | 0.00 | 0.00 | 61 | 1017.8 |
| 20260505192204 | 64 | 266 | 8.0 | 11.0 | 0.00 | 0.00 | 0.00 | 60 | 1017.8 |
| 20260505191704 | 64 | 278 | 8.0 | 10.0 | 0.00 | 0.00 | 0.00 | 61 | 1017.7 |
| 20260505191511 | 63 | 278 | 4.0 | 10.0 | 0.00 | 0.00 | 0.00 | 61 | 1015.3 |
| 20260505191205 | 64 | 235 | 6.0 | 11.0 | 0.00 | 0.00 | 0.00 | 61 | 1017.7 |
| 20260505190705 | 64 | 238 | 2.0 | 12.0 | 0.00 | 0.00 | 0.00 | 62 | 1017.8 |
| 20260505190204 | 64 | 280 | 5.0 | 12.0 | 0.00 | 0.00 | 0.00 | 62 | 1017.8 |
| 20260505190009 | 63 | 290 | 7.0 | 12.0 | 0.00 | 0.00 | 0.00 | 62 | 1015.4 |
| 20260505185705 | 64 | 295 | 8.0 | 12.0 | 0.00 | 0.00 | 0.00 | 63 | 1017.8 |
| 20260505185205 | 63 | 295 | 3.0 | 10.0 | 0.00 | 0.00 | 0.00 | 64 | 1017.7 |
| 20260505184704 | 63 | 295 | 4.0 | 10.0 | 0.00 | 0.00 | 0.00 | 62 | 1017.7 |
| 20260505184515 | 63 | 262 | 3.0 | 9.0 | 0.00 | 0.00 | 0.00 | 63 | 1015.3 |
| 20260505184205 | 63 | 295 | 5.0 | 10.0 | 0.00 | 0.00 | 0.00 | 66 | 1017.6 |
| 20260505183705 | 63 | 312 | 6.0 | 9.0 | 0.00 | 0.00 | 0.00 | 62 | 1017.7 |
| 20260505183205 | 63 | 295 | 3.0 | 9.0 | 0.00 | 0.00 | 0.00 | 64 | 1017.6 |
| 20260505183015 | 62 | 283 | 4.0 | 9.0 | 0.00 | 0.00 | 0.00 | 63 | 1015.3 |
| 20260505182704 | 62 | 295 | 6.0 | 10.0 | 0.00 | 0.00 | 0.00 | 64 | 1017.7 |
| 20260505182205 | 62 | 295 | 3.0 | 10.0 | 0.00 | 0.00 | 0.00 | 64 | 1017.7 |
| 20260505181705 | 62 | 347 | 5.0 | 10.0 | 0.00 | 0.00 | 0.00 | 66 | 1017.6 |
| 20260505181503 | 61 | 300 | 3.0 | 10.0 | 0.00 | 0.00 | 0.00 | 64 | 1015.1 |
| 20260505180704 | 61 | 290 | 6.0 | 9.0 | 0.00 | 0.00 | 0.00 | 66 | 1017.5 |
| 20260505180205 | 61 | 302 | 3.0 | 7.0 | 0.00 | 0.00 | 0.00 | 67 | 1017.5 |
| 20260505180001 | 60 | 295 | 2.0 | 9.0 | 0.00 | 0.00 | 0.00 | 68 | 1015.1 |
| 20260505175205 | 60 | 295 | 5.0 | 9.0 | 0.00 | 0.00 | 0.00 | 70 | 1017.5 |
| 20260505174704 | 60 | 295 | 4.0 | 10.0 | 0.00 | 0.00 | 0.00 | 70 | 1017.5 |
| 20260505174600 | 59 | 295 | 4.0 | 9.0 | 0.00 | 0.00 | 0.00 | 70 | 1015.1 |
| 20260505174204 | 60 | 295 | 5.0 | 10.0 | 0.00 | 0.00 | 0.00 | 69 | 1017.4 |
| 20260505173705 | 60 | 295 | 5.0 | 11.0 | 0.00 | 0.00 | 0.00 | 70 | 1017.3 |
| 20260505173205 | 59 | 295 | 7.0 | 11.0 | 0.00 | 0.00 | 0.00 | 70 | 1017.5 |
| 20260505173059 | 59 | 295 | 7.0 | 11.0 | 0.00 | 0.00 | 0.00 | 70 | 1015.0 |
| 20260505172705 | 59 | 295 | 8.0 | 11.0 | 0.00 | 0.00 | 0.00 | 71 | 1017.4 |
| 20260505172204 | 59 | 295 | 9.0 | 11.0 | 0.00 | 0.00 | 0.00 | 71 | 1017.4 |
| 20260505171705 | 59 | 358 | 6.0 | 11.0 | 0.00 | 0.00 | 0.00 | 72 | 1017.3 |
| 20260505171557 | 59 | 358 | 7.0 | 11.0 | 0.00 | 0.00 | 0.00 | 72 | 1014.9 |
| 20260505171205 | 59 | 358 | 9.0 | 12.0 | 0.00 | 0.00 | 0.00 | 71 | 1017.2 |
| 20260505170100 | 60 | 334 | 7.0 | 12.0 | 0.00 | 0.00 | 0.00 | 64 | 1014.8 |
| 20260505165704 | 60 | 285 | 7.0 | 11.0 | 0.00 | 0.00 | 0.00 | 64 | 1017.2 |
| 20260505165205 | 60 | 278 | 6.0 | 11.0 | 0.00 | 0.00 | 0.00 | 64 | 1017.1 |
| 20260505164704 | 61 | 295 | 8.0 | 13.0 | 0.00 | 0.00 | 0.00 | 63 | 1017.1 |
| 20260505164620 | 61 | 300 | 6.0 | 11.0 | 0.00 | 0.00 | 0.00 | 64 | 1014.7 |
| 20260505164204 | 61 | 292 | 9.0 | 13.0 | 0.00 | 0.00 | 0.00 | 63 | 1017.1 |
| 20260505163704 | 61 | 295 | 7.0 | 14.0 | 0.00 | 0.00 | 0.00 | 65 | 1017.0 |
| 20260505163204 | 60 | 295 | 9.0 | 14.0 | 0.00 | 0.00 | 0.00 | 66 | 1017.1 |
| 20260505163052 | 60 | 280 | 9.0 | 13.0 | 0.00 | 0.00 | 0.00 | 67 | 1014.7 |
| 20260505162704 | 60 | 299 | 11.0 | 14.0 | 0.00 | 0.00 | 0.00 | 67 | 1017.1 |
| 20260505162204 | 59 | 278 | 11.0 | 13.0 | 0.00 | 0.00 | 0.00 | 70 | 1017.0 |
| 20260505161548 | 59 | 295 | 8.0 | 12.0 | 0.00 | 0.00 | 0.00 | 71 | 1014.7 |
| 20260505161204 | 59 | 295 | 6.0 | 9.0 | 0.00 | 0.00 | 0.00 | 74 | 1017.0 |
| 20260505160704 | 58 | 289 | 4.0 | 9.0 | 0.00 | 0.00 | 0.00 | 77 | 1017.0 |
| 20260505160204 | 58 | 279 | 4.0 | 5.0 | 0.00 | 0.00 | 0.00 | 78 | 1017.0 |
| 20260505153204 | 56 | 295 | 1.0 | 4.0 | 0.00 | 0.00 | 0.00 | 84 | 1016.8 |
| 20260505153046 | 55 | 295 | 1.0 | 4.0 | 0.00 | 0.00 | 0.00 | 84 | 1014.4 |
| 20260505152705 | 56 | 295 | 1.0 | 4.0 | 0.00 | 0.00 | 0.00 | 84 | 1016.9 |
| 20260505152204 | 56 | 295 | 2.0 | 4.0 | 0.00 | 0.00 | 0.00 | 86 | 1016.8 |
| 20260505151705 | 55 | 295 | 2.0 | 3.0 | 0.00 | 0.00 | 0.00 | 86 | 1016.9 |
| 20260505151544 | 55 | 295 | 2.0 | 3.0 | 0.00 | 0.00 | 0.00 | 86 | 1014.5 |
| 20260505150704 | 55 | 295 | 1.0 | 4.0 | 0.00 | 0.00 | 0.00 | 88 | 1016.8 |
| 20260505150204 | 54 | 295 | 2.0 | 4.0 | 0.00 | 0.00 | 0.00 | 88 | 1016.8 |
| 20260505140205 | 53 | 295 | 3.0 | 5.0 | 0.00 | 0.00 | 0.00 | 90 | 1016.5 |
| 20260505130204 | 53 | 295 | 4.0 | 5.0 | 0.00 | 0.00 | 0.00 | 90 | 1016.2 |
| 20260505124704 | 53 | 295 | 3.0 | 5.0 | 0.00 | 0.00 | 0.00 | 89 | 1016.2 |
| 20260505124533 | 52 | 295 | 3.0 | 4.0 | 0.00 | 0.00 | 0.00 | 89 | 1013.8 |
| 20260505124204 | 53 | 295 | 3.0 | 5.0 | 0.00 | 0.00 | 0.00 | 90 | 1016.3 |
| 20260505123204 | 53 | 295 | 5.0 | 6.0 | 0.00 | 0.00 | 0.00 | 89 | 1016.3 |
| 20260505123032 | 52 | 295 | 4.0 | 5.0 | 0.00 | 0.00 | 0.00 | 89 | 1013.8 |
| 20260505121704 | 53 | 295 | 5.0 | 7.0 | 0.00 | 0.00 | 0.00 | 89 | 1016.1 |
| 20260505121531 | 52 | 295 | 5.0 | 8.0 | 0.00 | 0.00 | 0.00 | 89 | 1013.7 |
| 20260505121205 | 53 | 295 | 5.0 | 7.0 | 0.00 | 0.00 | 0.00 | 88 | 1016.1 |
| 20260505120204 | 53 | 295 | 6.0 | 7.0 | 0.00 | 0.00 | 0.00 | 88 | 1016.2 |
| 20260505120037 | 53 | 295 | 4.0 | 8.0 | 0.00 | 0.00 | 0.00 | 88 | 1013.9 |
| 20260505115705 | 53 | 295 | 6.0 | 10.0 | 0.00 | 0.00 | 0.00 | 88 | 1016.3 |
| 20260505115205 | 53 | 295 | 5.0 | 10.0 | 0.00 | 0.00 | 0.00 | 87 | 1016.2 |
| 20260505114704 | 53 | 295 | 6.0 | 10.0 | 0.00 | 0.00 | 0.00 | 87 | 1016.2 |
| 20260505114527 | 53 | 295 | 5.0 | 10.0 | 0.00 | 0.00 | 0.00 | 87 | 1013.9 |
| 20260505114205 | 53 | 295 | 8.0 | 12.0 | 0.00 | 0.00 | 0.00 | 87 | 1016.2 |
| 20260505113704 | 54 | 295 | 6.0 | 12.0 | 0.00 | 0.00 | 0.00 | 86 | 1016.2 |
| 20260505113204 | 54 | 295 | 6.0 | 13.0 | 0.00 | 0.00 | 0.00 | 86 | 1016.3 |
| 20260505113031 | 53 | 295 | 7.0 | 12.0 | 0.00 | 0.00 | 0.00 | 86 | 1014.0 |
| 20260505112704 | 54 | 295 | 10.0 | 13.0 | 0.00 | 0.00 | 0.00 | 86 | 1016.3 |
| 20260505111705 | 54 | 295 | 9.0 | 11.0 | 0.00 | 0.00 | 0.00 | 85 | 1016.3 |
| 20260505111524 | 54 | 295 | 8.0 | 11.0 | 0.00 | 0.00 | 0.00 | 85 | 1013.9 |
| 20260505111204 | 54 | 295 | 9.0 | 11.0 | 0.00 | 0.00 | 0.00 | 85 | 1016.2 |
| 20260505110704 | 54 | 295 | 9.0 | 11.0 | 0.00 | 0.00 | 0.00 | 85 | 1016.3 |
| 20260505110204 | 54 | 295 | 7.0 | 11.0 | 0.00 | 0.00 | 0.00 | 85 | 1016.2 |
| 20260505102204 | 55 | 295 | 8.0 | 13.0 | 0.00 | 0.00 | 0.00 | 83 | 1016.3 |
| 20260505101525 | 54 | 295 | 9.0 | 12.0 | 0.00 | 0.00 | 0.00 | 82 | 1013.9 |
| 20260505100704 | 55 | 295 | 9.0 | 13.0 | 0.00 | 0.00 | 0.00 | 82 | 1016.3 |
| 20260505100019 | 55 | 295 | 10.0 | 13.0 | 0.00 | 0.00 | 0.00 | 82 | 1014.1 |
| 20260505095704 | 55 | 295 | 9.0 | 15.0 | 0.00 | 0.00 | 0.00 | 82 | 1016.4 |
| 20260505095205 | 55 | 295 | 8.0 | 15.0 | 0.00 | 0.00 | 0.00 | 81 | 1016.3 |
| 20260505094705 | 55 | 295 | 12.0 | 15.0 | 0.00 | 0.00 | 0.00 | 81 | 1016.4 |
| 20260505094524 | 55 | 295 | 11.0 | 15.0 | 0.00 | 0.00 | 0.00 | 81 | 1014.1 |
| 20260505094204 | 55 | 295 | 10.0 | 15.0 | 0.00 | 0.00 | 0.00 | 81 | 1016.4 |
| 20260505093705 | 56 | 295 | 12.0 | 14.0 | 0.00 | 0.00 | 0.00 | 80 | 1016.4 |
| 20260505093204 | 56 | 295 | 10.0 | 14.0 | 0.00 | 0.00 | 0.00 | 80 | 1016.5 |
| 20260505093014 | 55 | 295 | 10.0 | 14.0 | 0.00 | 0.00 | 0.00 | 80 | 1014.1 |
| 20260505092704 | 56 | 295 | 10.0 | 15.0 | 0.00 | 0.00 | 0.00 | 80 | 1016.4 |
| 20260505092204 | 56 | 295 | 11.0 | 15.0 | 0.00 | 0.00 | 0.00 | 80 | 1016.4 |
| 20260505091704 | 56 | 295 | 11.0 | 17.0 | 0.00 | 0.00 | 0.00 | 80 | 1016.5 |
| 20260505091512 | 55 | 295 | 10.0 | 15.0 | 0.00 | 0.00 | 0.00 | 80 | 1014.2 |
| 20260505091206 | 56 | 295 | 11.0 | 17.0 | 0.00 | 0.00 | 0.00 | 79 | 1016.6 |
| 20260505090705 | 56 | 295 | 13.0 | 15.0 | 0.00 | 0.00 | 0.00 | 79 | 1016.6 |
| 20260505090205 | 56 | 295 | 11.0 | 16.0 | 0.00 | 0.00 | 0.00 | 79 | 1016.6 |
| 20260505090009 | 56 | 295 | 11.0 | 16.0 | 0.00 | 0.00 | 0.00 | 79 | 1014.2 |
| 20260505085704 | 56 | 295 | 11.0 | 16.0 | 0.00 | 0.00 | 0.00 | 79 | 1016.6 |
| 20260505084704 | 57 | 295 | 13.0 | 12.0 | 0.00 | 0.00 | 0.00 | 78 | 1016.5 |
| 20260505084507 | 56 | 295 | 11.0 | 14.0 | 0.00 | 0.00 | 0.00 | 78 | 1014.1 |
| 20260505084204 | 57 | 295 | 10.0 | 12.0 | 0.00 | 0.00 | 0.00 | 78 | 1016.5 |
| 20260505083704 | 57 | 295 | 9.0 | 13.0 | 0.00 | 0.00 | 0.00 | 78 | 1016.5 |
| 20260505083205 | 57 | 295 | 10.0 | 14.0 | 0.00 | 0.00 | 0.00 | 77 | 1016.6 |
| 20260505083005 | 56 | 295 | 10.0 | 13.0 | 0.00 | 0.00 | 0.00 | 77 | 1014.2 |
| 20260505082705 | 57 | 295 | 9.0 | 14.0 | 0.00 | 0.00 | 0.00 | 77 | 1016.6 |
| 20260505082205 | 57 | 295 | 11.0 | 14.0 | 0.00 | 0.00 | 0.00 | 77 | 1016.5 |
| 20260505081705 | 57 | 295 | 11.0 | 12.0 | 0.00 | 0.00 | 0.00 | 77 | 1016.5 |
| 20260505081506 | 57 | 295 | 10.0 | 13.0 | 0.00 | 0.00 | 0.00 | 77 | 1014.2 |
| 20260505081205 | 57 | 295 | 9.0 | 12.0 | 0.00 | 0.00 | 0.00 | 77 | 1016.5 |
| 20260505080704 | 57 | 295 | 8.0 | 12.0 | 0.00 | 0.00 | 0.00 | 77 | 1016.5 |
| 20260505080204 | 57 | 295 | 9.0 | 12.0 | 0.00 | 0.00 | 0.00 | 78 | 1016.5 |
| 20260505080001 | 57 | 295 | 9.0 | 12.0 | 0.00 | 0.00 | 0.00 | 78 | 1014.2 |
| 20260505075705 | 57 | 295 | 10.0 | 12.0 | 0.00 | 0.00 | 0.00 | 78 | 1016.5 |
| 20260505074704 | 58 | 295 | 7.0 | 9.0 | 0.00 | 0.00 | 0.00 | 76 | 1016.6 |
| 20260505074558 | 57 | 295 | 6.0 | 9.0 | 0.00 | 0.00 | 0.00 | 76 | 1014.2 |
| 20260505073103 | 57 | 295 | 5.0 | 9.0 | 0.00 | 0.00 | 0.00 | 73 | 1014.3 |